[[{"header":{"parameterUnit":"m.s-1","parameterCategory":1,"la1":30.2991,"la2":30.254,"lo1":-89.0895,"lo2":-89.0444,"dy":0.0017,"dx":0.0017,"nx":28,"ny":28,"refTime":"2024-05-24T21:00:00:Z","depth":0,"parameterNumber":2,"parameterNumberName":"U-component_of_WINDS"},"data":[0,0,0,0,0,0,0,0,0,0,0,0,0,0,0,0,0,0,0,0,0,0,0,0,0,0,0,0,0,0,0,0,0,0,0,0,0,0,0,0,0,0,0,0,0,0,0,0,0,0,0,0,0,0,0,0,0,0,1.2523,1.2524,0,1.2596,1.2597,1.2598,1.2598,1.2597,1.2596,1.2595,1.2673,1.2675,1.2678,0,0,0,0,0,0,0,0,0,0,0,0,0,1.2387,1.239,1.2523,1.2524,1.2525,1.2596,1.2597,1.2598,1.2598,1.2597,1.2595,1.2594,1.2672,1.2675,1.2679,0,0,0,0,0,0,0,0,0,0,0,0,0,1.2452,1.239,1.2523,1.2533,1.2535,1.2596,1.2597,1.2598,1.2598,1.2597,1.2595,1.2594,1.267,1.2675,1.2679,1.2735,0,0,1.2693,1.2695,0,0,0,0,0,0,0,0,1.2448,1.2457,1.2531,1.2533,1.2535,1.2586,1.2577,1.2644,1.2598,1.2574,1.2595,1.2593,1.2645,1.2652,1.2668,1.2739,1.2742,1.2693,1.2696,1.2698,1.2699,0,0,0,0,0,0,0,1.2444,1.2454,1.2552,1.2532,1.2534,1.2535,1.2543,1.259,1.2617,1.2576,1.2576,1.2585,1.2646,1.2664,1.267,1.2743,1.2693,1.2697,1.27,1.2701,1.2863,1.2865,0,0,0,0,0,0,1.2437,1.245,1.255,1.2554,1.2487,1.2539,1.2547,1.2571,1.2616,1.2622,1.2586,1.2585,1.2657,1.2665,1.2673,1.2741,1.2698,1.2702,1.2704,1.2861,1.2863,1.2865,0,0,0,0,0,0,1.2434,1.2445,1.2547,1.2502,1.2515,1.2543,1.257,1.2573,1.2592,1.2624,1.2629,1.2599,1.2656,1.2667,1.2719,1.2744,1.2704,1.2708,1.2859,1.2862,1.2864,1.2879,0,0,0,0,0,0,1.243,1.2444,1.2465,1.2503,1.2518,1.2591,1.2571,1.2576,1.2599,1.2598,1.2638,1.2643,1.2656,1.2713,1.2724,1.275,1.2711,1.2857,1.2861,1.2863,1.2876,1.2881,1.2886,0,0,0,0,0,1.2425,1.2467,1.2467,1.2479,1.2544,1.2593,1.2601,1.2615,1.2601,1.2623,1.2643,1.2642,1.2739,1.2718,1.2731,1.2758,1.2856,1.286,1.2863,1.2874,1.288,1.2886,0,0,0,0,0,0,1.2434,1.2473,1.2472,1.2528,1.2557,1.2593,1.262,1.2621,1.2656,1.2653,1.2669,1.2678,1.2731,1.275,1.2725,1.2814,1.2796,1.2802,1.28,1.2806,1.2811,1.2806,1.2715,0,0,0,0,0,1.2442,1.2477,1.251,1.2556,1.257,1.2593,1.2614,1.2622,1.2653,1.2666,1.269,1.2722,1.2759,1.2784,1.282,1.2879,1.2888,1.2904,1.2909,1.2912,1.2918,1.295,1.2957,1.2877,1.2877,1.2877,0,0,1.246,1.2485,1.2507,1.2558,1.2582,1.2618,1.2603,1.2643,1.2671,1.2672,1.2723,1.2742,1.2778,1.2834,1.2859,1.2851,1.2942,1.2917,1.292,1.2923,1.2954,1.2962,1.2969,1.288,1.2879,1.2879,0,0,1.2511,1.2534,1.2574,1.2598,1.2633,1.2648,1.2657,1.2693,1.2705,1.2756,1.2758,1.2792,1.2856,1.2882,1.2903,1.2963,1.2963,1.2975,1.3,1.3031,1.3037,1.3043,1.3064,1.3072,1.298,1.298,1.298,0,1.2529,1.2584,1.2596,1.2635,1.2658,1.2659,1.2701,1.2724,1.277,1.2785,1.2775,1.2856,1.288,1.2941,1.2956,1.2973,1.2985,1.297,1.3035,1.3041,1.3046,1.3067,1.3075,1.2981,1.2981,1.2981,1.2981,0,1.2604,1.2642,1.2671,1.2713,1.2739,1.278,1.2798,1.2823,1.2828,1.2844,1.2896,1.2925,1.2967,1.2982,1.2989,1.3045,1.3038,1.3032,1.3013,1.3055,1.3075,1.3083,1.2983,1.2982,1.2982,1.2982,0,0,1.2664,1.2711,1.2722,1.2741,1.278,1.281,1.285,1.289,1.2911,1.2943,1.2978,1.3032,1.3025,1.305,1.3058,1.3086,1.3131,1.3075,1.3076,1.3085,1.3195,1.3199,1.3208,1.3131,1.3132,1.3134,1.3191,0,1.2719,1.279,1.2801,1.2864,1.2899,1.2901,1.2937,1.2965,1.298,1.3013,1.3031,1.3069,1.3058,1.3072,1.3099,1.312,1.3153,1.3116,1.3164,1.3166,1.3155,1.3219,1.3224,1.3277,1.3199,1.32,1.3201,0,1.2793,1.2825,1.2891,1.2924,1.2939,1.2971,1.3008,1.3039,1.3071,1.3081,1.3107,1.3112,1.3155,1.3135,1.3194,1.3168,1.3189,1.3202,1.3204,1.321,1.3186,1.3226,1.3295,1.3303,1.3214,1.3213,1.3212,0,1.2829,1.2889,1.2936,1.2952,1.2993,1.3015,1.3033,1.3063,1.3086,1.3119,1.3134,1.3172,1.3193,1.3222,1.3238,1.3222,1.3296,1.3277,1.3306,1.3306,1.3322,1.3321,1.3395,1.3335,1.3335,1.3335,1.3334,0,1.289,1.293,1.2953,1.2982,1.3027,1.304,1.3085,1.3102,1.3129,1.3162,1.3166,1.3197,1.3216,1.325,1.3262,1.3309,1.3319,1.3328,1.3331,1.3328,1.3327,1.3342,1.3339,1.3337,1.3336,1.3336,1.3336,0,1.2938,1.2955,1.3006,1.304,1.3049,1.3081,1.311,1.3138,1.3154,1.3195,1.3206,1.323,1.327,1.3288,1.3338,1.3347,1.34,1.3401,1.3389,1.339,1.3418,1.3415,1.3505,1.3517,1.3449,1.3449,1.345,0,1.2976,1.3007,1.3043,1.3065,1.3083,1.3118,1.3141,1.3156,1.318,1.3218,1.3242,1.3282,1.3314,1.3378,1.3401,1.3439,1.344,1.3469,1.3446,1.3441,1.3441,1.3438,1.3442,1.3473,1.3474,1.3474,1.3475,0,1.304,1.3047,1.308,1.3116,1.3143,1.3172,1.3201,1.3219,1.3238,1.3265,1.3305,1.333,1.338,1.342,1.3459,1.3478,1.348,1.3482,1.349,1.3488,1.348,1.3484,1.3401,1.348,1.3479,1.3479,1.3479,1.3478,1.3085,1.3112,1.3142,1.3178,1.3201,1.3227,1.3255,1.3274,1.3307,1.3348,1.3355,1.3398,1.3429,1.3482,1.3502,1.3536,1.353,1.3542,1.3545,1.3548,1.355,1.3474,1.3544,1.3543,1.3543,1.3543,1.3543,0,1.315,1.3168,1.3202,1.3241,1.327,1.3268,1.3299,1.3324,1.3361,1.3389,1.3421,1.3467,1.3505,1.353,1.3569,1.3592,1.3593,1.3601,1.36,1.3604,1.3554,1.3542,1.3599,1.3599,1.3599,1.3599,1.3599,1.3599,1.3187,1.3233,1.3243,1.33,1.3319,1.336,1.3378,1.3403,1.3425,1.3476,1.3508,1.3524,1.3551,1.3591,1.3626,1.3633,1.3647,1.3655,1.3662,1.3614,1.3608,1.3602,1.3592,1.3658,1.3658,1.371,1.371,1.371]},{"header":{"parameterUnit":"m.s-1","parameterCategory":1,"la1":30.2991,"la2":30.254,"lo1":-89.0895,"lo2":-89.0444,"dy":0.0017,"dx":0.0017,"nx":28,"ny":28,"refTime":"2024-05-24T21:00:00:Z","depth":0,"parameterNumber":3,"parameterNumberName":"V-component_of_WINDS"},"data":[0,0,0,0,0,0,0,0,0,0,0,0,0,0,0,0,0,0,0,0,0,0,0,0,0,0,0,0,0,0,0,0,0,0,0,0,0,0,0,0,0,0,0,0,0,0,0,0,0,0,0,0,0,0,0,0,0,0,5.9624,5.9624,0,5.9611,5.9611,5.9611,5.9583,5.9582,5.9582,5.9581,5.9566,5.9567,5.9567,0,0,0,0,0,0,0,0,0,0,0,0,0,5.9624,5.9624,5.9624,5.9624,5.9624,5.9611,5.9611,5.9611,5.9583,5.9582,5.9581,5.9581,5.9566,5.9567,5.9567,0,0,0,0,0,0,0,0,0,0,0,0,0,5.9619,5.9624,5.9624,5.9608,5.9607,5.9611,5.9611,5.9611,5.9583,5.9582,5.9581,5.9581,5.9566,5.9567,5.9567,5.9585,0,0,5.9567,5.9567,0,0,0,0,0,0,0,0,5.9619,5.9619,5.9611,5.9609,5.9608,5.9598,5.9605,5.9602,5.9583,5.9592,5.9581,5.958,5.9577,5.9577,5.9576,5.9584,5.9584,5.9567,5.9567,5.9568,5.9568,0,0,0,0,0,0,0,5.9619,5.9619,5.9619,5.9611,5.9609,5.9602,5.96,5.9605,5.959,5.9591,5.9589,5.9588,5.9576,5.9576,5.9575,5.9583,5.9567,5.9568,5.9568,5.9568,5.9607,5.9608,0,0,0,0,0,0,5.9622,5.962,5.9619,5.9618,5.9611,5.9602,5.9601,5.9602,5.9589,5.9587,5.9589,5.9587,5.9576,5.9575,5.9575,5.9596,5.9568,5.9568,5.9568,5.9606,5.9607,5.9608,0,0,0,0,0,0,5.9622,5.9622,5.962,5.9619,5.9618,5.9603,5.9605,5.9602,5.9601,5.9588,5.9585,5.9591,5.9575,5.9575,5.9583,5.9595,5.9568,5.9568,5.9605,5.9606,5.9607,5.9637,0,0,0,0,0,0,5.9622,5.9623,5.9629,5.9619,5.9618,5.9628,5.9606,5.9602,5.9602,5.9599,5.9589,5.9587,5.9575,5.9583,5.9583,5.9594,5.9568,5.9604,5.9605,5.9607,5.9635,5.9639,5.9643,0,0,0,0,0,5.9623,5.9638,5.963,5.963,5.9626,5.9629,5.9628,5.9615,5.9603,5.961,5.9601,5.9587,5.9594,5.9584,5.9584,5.9596,5.9603,5.9605,5.9607,5.9633,5.9639,5.9643,0,0,0,0,0,0,5.9649,5.9636,5.9627,5.9639,5.9636,5.9624,5.9632,5.9621,5.9619,5.9617,5.96,5.9598,5.9608,5.9603,5.9592,5.9613,5.9596,5.9598,5.9616,5.9621,5.9625,5.9626,5.9568,0,0,0,0,0,5.9657,5.966,5.9649,5.9661,5.9659,5.9646,5.9647,5.9637,5.9632,5.963,5.9622,5.9617,5.9619,5.962,5.962,5.9635,5.9632,5.9643,5.9647,5.965,5.9652,5.966,5.9665,5.9615,5.9615,5.9615,0,0,5.9672,5.9665,5.9668,5.9666,5.9662,5.9666,5.9645,5.965,5.9653,5.9631,5.9638,5.9632,5.9626,5.9638,5.9643,5.9634,5.9666,5.9653,5.9656,5.9655,5.9663,5.9667,5.9671,5.9616,5.9616,5.9616,0,0,5.9701,5.9697,5.9706,5.9703,5.9697,5.9689,5.9691,5.9682,5.9678,5.9685,5.9669,5.9672,5.9674,5.9671,5.9669,5.97,5.9686,5.97,5.9721,5.9729,5.9733,5.9736,5.9747,5.9751,5.9702,5.9702,5.9702,0,5.972,5.9726,5.9712,5.9719,5.9719,5.97,5.971,5.9707,5.9702,5.9702,5.9692,5.9695,5.969,5.9701,5.9709,5.9708,5.971,5.9701,5.9733,5.9737,5.9739,5.975,5.9754,5.9704,5.9704,5.9704,5.9703,0,5.975,5.9754,5.9763,5.9759,5.976,5.9768,5.9756,5.9758,5.9749,5.9741,5.975,5.9743,5.9742,5.9744,5.9734,5.9754,5.9748,5.9736,5.9719,5.9746,5.9755,5.9759,5.9706,5.9706,5.9705,5.9705,0,0,5.9794,5.9784,5.9787,5.9786,5.9779,5.9782,5.979,5.979,5.9792,5.9789,5.9795,5.9799,5.9788,5.9786,5.9776,5.9783,5.9808,5.977,5.977,5.9778,5.983,5.9838,5.9843,5.98,5.9801,5.9801,5.983,0,5.9821,5.9834,5.9823,5.9838,5.9842,5.9825,5.9832,5.9829,5.9822,5.9825,5.9818,5.982,5.9806,5.9805,5.9811,5.9804,5.9818,5.9802,5.9805,5.9805,5.9806,5.9848,5.9857,5.9884,5.9834,5.9834,5.9835,0,5.9854,5.9854,5.987,5.9863,5.9865,5.9871,5.987,5.9873,5.9869,5.9864,5.9864,5.9852,5.9859,5.9843,5.9853,5.9842,5.9843,5.9839,5.984,5.9839,5.9821,5.9848,5.9893,5.9897,5.984,5.984,5.9839,0,5.9885,5.9889,5.9899,5.9898,5.9891,5.9896,5.9893,5.9888,5.9889,5.9889,5.9889,5.9889,5.9889,5.989,5.9879,5.9868,5.989,5.9873,5.9886,5.9886,5.989,5.989,5.9936,5.9892,5.9892,5.9892,5.9892,0,5.9916,5.9926,5.9912,5.9918,5.993,5.9917,5.9928,5.9924,5.992,5.9925,5.9911,5.9916,5.9901,5.9904,5.9896,5.9905,5.9905,5.9901,5.9899,5.9902,5.9903,5.9902,5.99,5.9893,5.9893,5.9893,5.9892,0,5.9951,5.9943,5.9952,5.9945,5.9944,5.9952,5.9946,5.9951,5.9945,5.9952,5.9952,5.9942,5.9945,5.9935,5.9936,5.993,5.9945,5.9939,5.9946,5.9944,5.9958,5.9957,6.0004,6.001,5.9963,5.9963,5.9964,0,5.9972,5.9979,5.9973,5.9976,5.9974,5.9979,5.998,5.9968,5.997,5.9968,5.9973,5.9976,5.9977,5.9983,5.9976,5.9977,5.9971,5.9988,5.9971,5.9975,5.9971,5.9971,5.9972,5.9991,5.9992,5.9992,5.9992,0,6.0008,6.0004,6.0007,6.0009,6.0011,6.0011,6.0011,6.0014,6.0002,6.0005,6.0008,6.001,6.0012,6.0014,6.0014,6.0011,6.0,5.9998,6.0001,6.0004,6.0008,6.0006,5.9955,5.9997,5.9996,5.9996,5.9996,5.9995,6.0037,6.0043,6.004,6.0044,6.0043,6.0043,6.0048,6.0043,6.0046,6.0048,6.0041,6.0046,6.0043,6.0042,6.004,6.0044,6.0037,6.0041,6.0042,6.0043,6.0046,6.0008,6.0044,6.0044,6.0044,6.0044,6.0044,0,6.0073,6.0071,6.0074,6.0075,6.0078,6.0068,6.0068,6.0071,6.0076,6.0075,6.0077,6.0082,6.0085,6.0078,6.008,6.0084,6.0079,6.0085,6.0085,6.0084,6.0052,6.005,6.0089,6.0089,6.0089,6.0089,6.0089,6.0089,6.0092,6.0102,6.0098,6.0108,6.0105,6.0111,6.0112,6.0112,6.0111,6.0118,6.012,6.0116,6.0113,6.0115,6.0117,6.0115,6.0116,6.0124,6.012,6.0091,6.0086,6.0082,6.0079,6.0125,6.0125,6.0152,6.0152,6.0152]}]]